Regional Weather Roundup
Issued by NWS Memphis, TN

Home | Current Version | Previous Version | Text Only | Print | Product List | Glossary On
Versions: 1 2 3 4 5 6 7 8 9 10 11 12 13 14 15 16 17 18 19 20 21 22 23 24 25 26 27 28 29 30 31 32 33 34 35 36 37 38 39 40 41 42 43 44 45 46 47 48 49 50
000
ASUS44 KMEG 180210
RWRMEG
MEMPHIS CWA HOURLY WEATHER ROUNDUP
NATIONAL WEATHER SERVICE MEMPHIS TN
800 PM CST TUE JAN 17 2017

...WEST TENNESSEE...

CITY           SKY/WX    TMP DP  RH WIND       PRES   REMARKS
MEMPHIS INTL   CLOUDY    51  45  79 W3        30.18R
NWS MEMPHIS      N/A     50 N/A N/A MISG        N/A
JACKSON        CLOUDY    50  46  86 W5        30.18R
BOLIVAR        CLEAR     50  45  81 W5        30.17R
DYERSBURG      CLOUDY    45  39  81 NW5       30.18
UNION CITY     CLOUDY    45  45 100 W7        30.16R
PARIS          CLOUDY    43  39  87 CALM      30.15F
HUNTINGDON     CLOUDY    48  45  87 NW7       30.15S


...EASTERN ARKANSAS...

CITY           SKY/WX    TMP DP  RH WIND       PRES   REMARKS
JONESBORO      CLOUDY    45  40  82 CALM      30.18R
WEST MEMPHIS   CLOUDY    50  46  86 VRB3      30.18R
BATESVILLE     CLOUDY    45  39  81 NW3       30.20R
NEWPORT        CLOUDY    46  41  82 NW5       30.20R
WALNUT RIDGE   CLOUDY    45  37  76 NW3       30.18S
BLYTHEVILLE    PTCLDY    45  42  89 NW6       30.19R
SEARCY         CLOUDY    47  44  90 CALM      30.21R
STUTTGART      CLOUDY    50  41  71 N7        30.18F
PINE BLUFF     CLOUDY    52  50  93 NW7       30.17S
MONTICELLO     CLOUDY    53  51  93 CALM      30.17R


...NORTH MISSISSIPPI...

CITY           SKY/WX    TMP DP  RH WIND       PRES   REMARKS
TUPELO         CLOUDY    57  54  89 CALM      30.15S
OXFORD         CLOUDY    54  52  94 NW5       30.19R
BATESVILLE     CLOUDY    55  52  89 CALM      30.19R
OLIVE BRANCH   CLOUDY   N/A N/A N/A W3        30.17R
TUNICA         CLOUDY    50  45  81 NW5       30.20R
CLARKSDALE     MOCLDY    54  54 100 NW3       30.19S
CORINTH        CLOUDY    55  50  82 NW7       30.16R
GREENWOOD      CLOUDY    55  52  89 CALM      30.17F
STARKVILLE     LGT RAIN  63  61  94 CALM      30.17R
GOLDEN TRIANGL MOCLDY    63  57  82 W5        30.12R


...SOUTHEAST MISSOURI...

CITY           SKY/WX    TMP DP  RH WIND       PRES   REMARKS
KENNETT        PTCLDY    46  41  81 NW5       30.16S
WEST PLAINS    CLOUDY    40  36  86 W8        30.18S WCI  34
POPLAR BLUFF   CLOUDY    45  40  82 W3        30.17S
CAPE GIRARDEAU CLOUDY    44  40  85 SW7       30.16S


...NORTHWEST ALABAMA...

CITY           SKY/WX    TMP DP  RH WIND       PRES   REMARKS
MUSCLE SHOALS  CLOUDY    60  57  89 W6        30.15R


...MIDDLE TENNESSEE...

CITY           SKY/WX    TMP DP  RH WIND       PRES   REMARKS
NASHVILLE      CLOUDY    55  43  63 W5        30.13R
CLARKSVILLE    CLOUDY    49  41  74 W14G25    30.14R
COLUMBIA       CLOUDY    55  55 100 W7        30.13R


...WESTERN KENTUCKY...

CITY           SKY/WX    TMP DP  RH WIND       PRES   REMARKS
PADUCAH        CLOUDY    45  38  76 W5        30.16S
FORT CAMPBELL  CLOUDY    48  42  80 W16       30.14R


...CENTRAL ARKANSAS...

CITY           SKY/WX    TMP DP  RH WIND       PRES   REMARKS
LITTLE ROCK    CLOUDY    49  43  80 N9        30.17F


SKY/WX REPORTED AS FAIR MEANS FEW OR NO CLOUDS BELOW
12 THOUSAND FEET.





USA.gov is the U.S. government's official web portal to all federal, state and local government web resources and services.